KI5BDI Weather Reports


time (UTC)temp
C
wind
direction
speed
KPH
gust
KPH
rain 1hr
cm
rain 24hr
cm
rain mn
cm
humidity
%
barometer
mb
20260509135544 23 204 3.2 6.4 0.00 0.03 0.00 96 1009.8
20260509134525 22 144 3.2 6.4 0.00 0.03 0.00 96 1010.0
20260509133525 22 155 1.6 4.8 0.00 0.03 0.00 97 1010.0
20260509132525 22 153 1.6 3.2 0.00 0.03 0.00 97 1010.1
20260509131524 22 139 1.6 6.4 0.00 0.03 0.00 97 1010.1
20260509130525 22 156 1.6 3.2 0.00 0.03 0.00 97 1010.2
20260509125525 22 161 0.0 1.6 0.00 0.03 0.00 97 1010.2
20260509124525 22 173 1.6 4.8 0.00 0.03 0.00 97 1010.0
20260509123526 22 232 1.6 4.8 0.00 0.03 0.00 97 1009.9
20260509122527 22 233 1.6 4.8 0.00 0.03 0.00 97 1009.7
20260509121527 21 231 1.6 3.2 0.00 0.03 0.00 97 1009.8
20260509120526 21 250 0.0 6.4 0.00 0.03 0.00 97 1009.9
20260509115527 21 242 3.2 6.4 0.00 0.03 0.00 97 1009.9
20260509114528 21 230 0.0 1.6 0.00 0.03 0.00 97 1009.8
20260509113526 21 220 1.6 4.8 0.00 0.03 0.00 97 1009.8
20260509112527 21 294 0.0 4.8 0.00 0.03 0.00 97 1009.7
20260509111527 21 0.0 0.0 0.00 0.03 0.00 97 1009.4
20260509110547 21 291 1.6 4.8 0.00 0.03 0.00 97 1009.1
20260509105527 21 231 0.0 3.2 0.00 0.03 0.00 96 1008.2
20260509104527 21 170 3.2 8.0 0.00 0.03 0.00 96 1008.1
20260509103519 21 192 4.8 11.3 0.00 0.03 0.00 96 1007.6
20260509102519 21 167 12.9 24.1 0.00 0.03 0.00 96 1007.4
20260509101519 21 171 8.0 17.7 0.00 0.03 0.00 96 1007.8
20260509100539 21 160 8.0 17.7 0.00 0.03 0.00 96 1007.7
20260509095519 21 155 8.0 17.7 0.00 0.03 0.00 96 1007.8
20260509094519 21 161 4.8 11.3 0.00 0.03 0.00 95 1008.3
20260509093542 21 164 4.8 11.3 0.00 0.03 0.00 95 1008.5
20260509092520 21 175 4.8 9.7 0.00 0.03 0.00 95 1008.5
20260509091520 21 160 3.2 8.0 0.00 0.03 0.00 94 1008.6
20260509090529 21 160 3.2 8.0 0.00 0.03 0.00 94 1008.8
20260509085529 21 168 1.6 3.2 0.00 0.03 0.00 94 1009.1
20260509084530 21 152 1.6 4.8 0.00 0.03 0.00 94 1009.3
20260509083529 21 170 0.0 3.2 0.00 0.03 0.00 94 1009.7
20260509082549 21 0.0 0.0 0.00 0.03 0.00 94 1009.9
20260509081530 21 0.0 0.0 0.00 0.03 0.00 94 1010.0
20260509080529 21 0.0 0.0 0.00 0.03 0.00 93 1010.2
20260509075531 21 0.0 0.0 0.00 0.03 0.00 93 1010.0
20260509074530 21 177 0.0 3.2 0.00 0.03 0.00 93 1009.8
20260509073530 21 173 1.6 6.4 0.00 0.03 0.00 93 1009.7
20260509072530 21 139 1.6 4.8 0.00 0.03 0.00 93 1009.7
20260509071532 21 161 1.6 4.8 0.00 0.03 0.00 92 1009.9
20260509070551 21 144 1.6 3.2 0.00 0.03 0.00 92 1010.0
20260509065552 21 153 0.0 3.2 0.00 0.03 0.00 92 1010.1
20260509064530 21 0.0 0.0 0.00 0.03 0.00 92 1010.3
20260509063551 21 138 0.0 1.6 0.00 0.03 0.00 92 1010.2
20260509062531 21 133 0.0 1.6 0.00 0.03 0.00 92 1010.2
20260509061531 21 0.0 0.0 0.00 0.03 0.00 92 1010.4
20260509060531 21 0.0 0.0 0.00 0.03 0.00 92 1010.4
20260509055531 21 25 1.6 4.8 0.00 0.03 0.00 92 1010.5
20260509054537 21 35 1.6 4.8 0.00 0.03 0.00 92 1010.2
20260509053518 21 148 3.2 6.4 0.00 0.03 0.00 92 1009.7
20260509052543 21 166 6.4 9.7 0.00 0.03 0.00 92 1009.2
20260509051524 21 170 4.8 9.7 0.00 0.03 0.00 92 1010.2
20260509050533 21 0.0 0.0 0.00 0.03 0.00 92 1010.8
20260509045532 21 0.0 0.0 0.00 0.03 0.03 92 1010.7
20260509044532 21 0.0 0.0 0.00 0.03 0.03 92 1010.4
20260509043517 21 0.0 0.0 0.00 0.03 0.03 92 1010.3
20260509042518 21 0.0 0.0 0.00 0.03 0.03 91 1010.1
20260509041538 21 0.0 0.0 0.00 0.03 0.03 91 1010.0
20260509040533 21 0.0 0.0 0.00 0.03 0.03 91 1010.0
20260509035518 21 0.0 0.0 0.00 0.03 0.03 91 1009.8
20260509034518 21 0.0 0.0 0.00 0.03 0.03 91 1009.6
20260509033519 21 0.0 0.0 0.00 0.03 0.03 91 1009.5
20260509032519 21 0.0 0.0 0.00 0.03 0.03 90 1009.6
20260509031519 21 0.0 0.0 0.00 0.03 0.03 90 1009.6
20260509030539 21 135 0.0 1.6 0.00 0.03 0.03 90 1009.4
20260509025519 21 0.0 0.0 0.00 0.03 0.03 89 1009.5
20260509024521 21 0.0 0.0 0.00 0.03 0.03 89 1009.4
20260509023519 21 0.0 0.0 0.00 0.03 0.03 89 1009.1
20260509022520 21 0.0 0.0 0.00 0.03 0.03 88 1009.0
20260509021520 22 0.0 0.0 0.00 0.03 0.03 88 1008.9
20260509020520 22 0.0 0.0 0.00 0.03 0.03 88 1008.6
20260509015522 22 0.0 0.0 0.00 0.03 0.03 87 1008.5
20260509014522 21 0.0 0.0 0.00 0.03 0.03 86 1008.4
20260509013518 22 0.0 0.0 0.00 0.03 0.03 86 1008.3
20260509012539 22 0.0 0.0 0.00 0.03 0.03 84 1008.2
20260509011520 22 124 0.0 3.2 0.00 0.03 0.03 82 1008.0
20260509010518 23 0.0 0.0 0.00 0.03 0.03 80 1007.8
20260509005519 23 0.0 0.0 0.00 0.03 0.03 79 1007.7
20260509004519 23 133 1.6 3.2 0.00 0.03 0.03 78 1007.7
20260509003539 24 146 3.2 4.8 0.00 0.03 0.03 77 1007.7
20260509002521 24 157 1.6 3.2 0.00 0.03 0.03 76 1008.0
20260509001519 25 0.0 0.0 0.00 0.03 0.03 75 1008.1
20260509000516 25 162 3.2 6.4 0.00 0.03 0.03 74 1008.1
20260508235520 25 164 3.2 8.0 0.00 0.03 0.03 73 1008.1
20260508234521 25 176 1.6 4.8 0.00 0.03 0.03 73 1008.2
20260508233520 25 171 4.8 9.7 0.00 0.03 0.03 72 1008.2
20260508232541 26 190 3.2 8.0 0.00 0.03 0.03 71 1008.1
20260508231517 27 160 4.8 11.3 0.00 0.03 0.03 68 1008.1
20260508230519 27 186 3.2 9.7 0.03 0.03 0.03 66 1008.1
20260508225522 26 218 0.0 4.8 0.03 0.03 0.03 69 1008.2
20260508224521 25 167 3.2 9.7 0.03 0.03 0.03 72 1007.9
20260508223518 25 173 4.8 11.3 0.03 0.03 0.03 73 1007.8
20260508222518 23 178 4.8 12.9 0.03 0.03 0.03 79 1007.4
20260508221519 23 147 12.9 20.9 0.03 0.03 0.03 79 1007.2
20260508220519 23 160 6.4 12.9 0.00 0.00 0.00 78 1007.9
20260508215519 24 156 6.4 11.3 0.00 0.00 0.00 75 1009.2
20260508214519 24 326 1.6 6.4 0.00 0.00 0.00 73 1009.8
20260508213519 24 245 1.6 4.8 0.00 0.00 0.00 71 1009.1
20260508212519 25 156 1.6 6.4 0.00 0.00 0.00 72 1009.1
20260508211539 25 157 3.2 8.0 0.00 0.03 0.00 71 1009.3
20260508210538 25 196 4.8 11.3 0.00 0.03 0.00 69 1009.6
20260508205521 26 182 4.8 9.7 0.00 0.03 0.00 68 1009.3
20260508204520 26 180 3.2 8.0 0.00 0.03 0.00 66 1009.3
20260508203520 27 177 4.8 11.3 0.00 0.03 0.00 64 1009.2
20260508202520 27 178 3.2 9.7 0.00 0.03 0.00 62 1009.1
20260508201520 27 199 3.2 9.7 0.00 0.03 0.00 62 1009.3
20260508200517 27 218 3.2 8.0 0.00 0.03 0.00 63 1009.3
20260508195520 26 202 4.8 12.9 0.00 0.03 0.00 64 1009.5
20260508194521 26 186 4.8 9.7 0.00 0.03 0.00 65 1009.7
20260508193520 27 187 6.4 11.3 0.00 0.03 0.00 64 1009.9
20260508192518 26 197 4.8 8.0 0.00 0.03 0.00 64 1009.9
20260508191520 26 182 3.2 9.7 0.00 0.03 0.00 67 1010.1
20260508190519 26 96 3.2 8.0 0.00 0.03 0.00 66 1010.5
20260508185519 26 198 4.8 9.7 0.00 0.03 0.00 65 1010.6
20260508184519 26 158 4.8 12.9 0.00 0.03 0.00 65 1010.6
20260508183520 25 165 6.4 11.3 0.00 0.03 0.00 66 1010.6
20260508182518 25 174 4.8 9.7 0.00 0.03 0.00 65 1010.9
20260508181519 25 139 3.2 8.0 0.00 0.03 0.00 64 1011.1
20260508180519 25 176 4.8 9.7 0.00 0.03 0.00 64 1011.2
20260508175520 25 135 4.8 12.9 0.00 0.03 0.00 65 1011.4
20260508174519 24 146 4.8 11.3 0.00 0.03 0.00 66 1011.5
20260508173519 24 160 6.4 14.5 0.00 0.03 0.00 66 1011.8
20260508172520 23 159 4.8 14.5 0.00 0.03 0.00 67 1012.0
20260508171520 23 186 4.8 9.7 0.00 0.03 0.00 69 1012.3
20260508170517 23 177 4.8 12.9 0.00 0.03 0.00 71 1012.5
20260508165520 23 172 6.4 14.5 0.00 0.03 0.00 71 1012.6
20260508164520 22 168 6.4 16.1 0.00 0.03 0.00 73 1012.6
20260508163522 22 169 6.4 16.1 0.00 0.03 0.00 74 1012.8
20260508162518 22 176 8.0 14.5 0.00 0.03 0.00 75 1013.0
20260508161518 21 173 6.4 14.5 0.00 0.03 0.00 76 1013.2
20260508160519 21 173 8.0 14.5 0.00 0.03 0.00 78 1013.2
20260508155521 21 159 6.4 14.5 0.00 0.03 0.00 79 1013.5
20260508154538 21 159 8.0 14.5 0.00 0.03 0.00 78 1013.7
20260508153519 21 145 6.4 16.1 0.00 0.03 0.00 78 1013.6
20260508152518 21 149 6.4 11.3 0.00 0.03 0.00 79 1013.8
20260508151520 21 167 6.4 12.9 0.00 0.03 0.00 78 1013.8
20260508150539 21 151 6.4 14.5 0.00 0.03 0.00 78 1013.9
20260508145519 21 132 4.8 11.3 0.00 0.03 0.00 77 1013.9
20260508144539 21 123 3.2 8.0 0.00 0.03 0.00 77 1013.9
20260508143519 21 135 3.2 6.4 0.00 0.03 0.00 76 1013.9
20260508142542 21 142 4.8 8.0 0.00 0.03 0.00 75 1014.0
20260508141517 20 126 1.6 6.4 0.00 0.03 0.00 78 1014.0
20260508140519 20 81 1.6 4.8 0.00 0.03 0.00 79 1014.0